Oshkosh, WI

2:14 AM CST on December 03, 2016 (GMT -0600)
Wittman Regional

Weather History for KOSH - June, 2013

Change the Weather History Date:

Saturday, June 22, 2013

  Actual Average Record
Temperature  
Mean Temperature 73 °F -  
Max Temperature 78 °F 78 °F 98 °F (1988)
Min Temperature 68 °F 58 °F 40 °F (1992)
Cooling Degree Days 8    
Growing Degree Days 23 (Base 50)    
Moisture  
Dew Point 66 °F    
Average Humidity 83    
Maximum Humidity 93    
Minimum Humidity 68    
Precipitation  
Precipitation 0.17 in - - ()
Sea Level Pressure  
Sea Level Pressure 29.99 in    
Wind  
Wind Speed 4 mph (SE)    
Max Wind Speed 16 mph    
Max Gust Speed 24 mph    
Visibility 8 miles    
Events Rain , Thunderstorm    
Averages and records for this station are not official NWS values.
T = Trace of Precipitation, MM = Missing Value Source: NWS Daily Summary

Daily Weather History Graph

Daily Weather History Graph

Search for Another Location

Airport or City:

Trip Planner

Search our weather history database for the weather conditions in past years. The results will help you decide how hot, cold, wet, or windy it might be!

Date:

Astronomy

Jun. 22, 2013 Rise Set
Actual Time 5:11 AM CDT 8:40 PM CDT
Civil Twilight 4:35 AM CDT 9:17 PM CDT
Nautical Twilight 3:47 AM CDT 10:04 PM CDT
Astronomical Twilight 2:46 AM CDT 11:05 PM CDT
Moon 7:53 PM CDT (6/22) 4:26 AM CDT (6/22)
Length of Visible Light 16h 41m
Length of Day
15h 29m
Waxing Gibbous, 99% of the Moon is Illuminated
Jun 22
Waxing Gibbous
Jun 23
Full
Jun 29
Last Quarter
Jul 8
New
Jul 15
First Quarter

Hourly Weather History & Observations

Time (CDT) Temp. Dew Point Humidity Pressure Visibility Wind Dir Wind Speed Gust Speed Precip Events Conditions
12:53 AM 69.1 °F 64.9 °F 87% 29.96 in 10.0 mi Calm Calm - N/A   Partly Cloudy
1:53 AM 69.1 °F 64.9 °F 87% 29.92 in 10.0 mi Calm Calm - N/A   Mostly Cloudy
2:53 AM 68.0 °F 64.9 °F 90% 29.93 in 10.0 mi South 3.5 mph - N/A   Mostly Cloudy
3:28 AM 69.8 °F 66.2 °F 88% 29.99 in 10.0 mi Calm Calm - N/A   Overcast
3:53 AM 69.1 °F 66.0 °F 90% 29.97 in 10.0 mi Calm Calm - N/A   Overcast
4:53 AM 70.0 °F 66.0 °F 87% 29.97 in 10.0 mi NE 4.6 mph - N/A   Overcast
5:43 AM 69.8 °F 66.2 °F 88% 30.04 in 10.0 mi SSW 4.6 mph - N/A   Overcast
5:53 AM 70.0 °F 66.0 °F 87% 30.01 in 10.0 mi SSW 3.5 mph - N/A   Overcast
6:13 AM 69.8 °F 66.2 °F 88% 30.06 in 2.5 mi SSW 4.6 mph - 0.01 in Rain Light Rain
6:23 AM 69.8 °F 66.2 °F 88% 30.05 in 2.5 mi Calm Calm - 0.02 in Rain Light Rain
6:34 AM 69.8 °F 66.2 °F 88% 30.05 in 3.0 mi WNW 3.5 mph - 0.02 in Rain Light Rain
6:43 AM 69.8 °F 66.2 °F 88% 30.05 in 6.0 mi Calm Calm - 0.02 in   Mostly Cloudy
6:53 AM 69.1 °F 66.9 °F 93% 30.02 in 6.0 mi Calm Calm - 0.02 in   Scattered Clouds
7:53 AM 71.1 °F 66.9 °F 87% 30.04 in 9.0 mi WNW 4.6 mph - N/A   Partly Cloudy
8:53 AM 73.0 °F 66.0 °F 79% 30.02 in 10.0 mi Calm Calm - N/A   Clear
9:53 AM 72.0 °F 64.9 °F 78% 30.05 in 10.0 mi West 4.6 mph - N/A   Partly Cloudy
10:53 AM 71.1 °F 64.9 °F 81% 30.00 in 10.0 mi Calm Calm - 0.01 in Rain Light Rain
11:53 AM 73.0 °F 66.0 °F 79% 29.96 in 10.0 mi SSE 10.4 mph - 0.00 in   Clear
12:53 PM 78.1 °F 66.9 °F 68% 29.89 in 10.0 mi ESE 16.1 mph 24.2 mph N/A   Clear
1:39 PM 71.6 °F 64.4 °F 78% 30.00 in 8.0 mi ESE 9.2 mph - N/A   Mostly Cloudy
1:53 PM 73.0 °F 64.9 °F 76% 29.98 in 9.0 mi ESE 8.1 mph - N/A   Mostly Cloudy
2:02 PM 73.4 °F 64.4 °F 73% 30.01 in 10.0 mi ESE 8.1 mph - N/A   Scattered Clouds
2:50 PM 73.4 °F 66.2 °F 78% 30.02 in 10.0 mi ESE 9.2 mph - N/A   Mostly Cloudy
2:53 PM 73.9 °F 66.0 °F 76% 29.99 in 10.0 mi ESE 10.4 mph - N/A   Mostly Cloudy
3:26 PM 75.2 °F 66.2 °F 73% 30.00 in 10.0 mi ESE 11.5 mph - N/A   Scattered Clouds
3:53 PM 73.9 °F 66.0 °F 76% 29.95 in 9.0 mi ESE 10.4 mph - N/A   Clear
4:53 PM 75.0 °F 66.9 °F 76% 29.95 in 10.0 mi ESE 6.9 mph - N/A   Overcast
5:53 PM 75.9 °F 66.9 °F 74% 29.96 in 10.0 mi East 5.8 mph - N/A   Mostly Cloudy
6:53 PM 75.0 °F 66.9 °F 76% 29.94 in 10.0 mi SE 10.4 mph - N/A   Overcast
7:53 PM 73.9 °F 66.9 °F 79% 29.94 in 10.0 mi ESE 4.6 mph - N/A   Partly Cloudy
8:53 PM 72.0 °F 66.0 °F 81% 29.92 in 10.0 mi East 8.1 mph - N/A   Clear
9:53 PM 71.1 °F 64.9 °F 81% 29.94 in 10.0 mi East 6.9 mph - N/A   Partly Cloudy
10:12 PM 71.6 °F 66.2 °F 83% 29.98 in 10.0 mi ESE 4.6 mph - 0.00 in Rain , Thunderstorm Light Thunderstorms and Rain
10:20 PM 71.6 °F 66.2 °F 83% 29.98 in 10.0 mi SE 5.8 mph - 0.00 in Thunderstorm Thunderstorm
10:53 PM 70.0 °F 66.9 °F 90% 29.96 in 4.0 mi SW 4.6 mph - 0.06 in Rain , Thunderstorm Light Thunderstorms and Rain
11:11 PM 69.8 °F 66.2 °F 88% 29.99 in 5.0 mi Calm Calm - 0.03 in Rain , Thunderstorm Light Rain
11:26 PM 69.8 °F 66.2 °F 88% 30.00 in 5.0 mi Calm Calm - 0.05 in Rain Light Rain
11:37 PM 69.8 °F 66.2 °F 88% 30.00 in 4.0 mi SW 3.5 mph - 0.07 in Rain Light Rain
11:53 PM 70.0 °F 66.9 °F 90% 29.96 in 7.0 mi West 3.5 mph - 0.08 in Rain Light Rain